Regional Weather Roundup
Issued by NWS Memphis, TN

Home | Current Version | Previous Version | Text Only | Print | Product List | Glossary On
Versions: 1 2 3 4 5 6 7 8 9 10 11 12 13 14 15 16 17 18 19 20 21 22 23 24 25 26 27 28 29 30 31 32 33 34 35 36 37 38 39 40 41 42 43 44 45 46 47 48 49 50
000
ASUS44 KMEG 292010
RWRMEG
MEMPHIS CWA HOURLY WEATHER ROUNDUP
NATIONAL WEATHER SERVICE MEMPHIS TN
300 PM CDT SAT APR 29 2017

...WEST TENNESSEE...

CITY           SKY/WX    TMP DP  RH WIND       PRES   REMARKS
MEMPHIS INTL   PTSUNNY   87  69  54 S23G30    29.84F HX  91
NWS MEMPHIS      N/A     87 N/A N/A MISG        N/A
JACKSON        MOSUNNY   85  70  60 S14G23    29.90S
SOMERVILLE     PTSUNNY   86  68  54 S15G21    29.87F
BOLIVAR        MOSUNNY   86  68  54 S12G28    29.89F
LEXINGTON      PTSUNNY   84  68  58 S16G25    29.94R
SAVANNAH       PTSUNNY   84  70  61 S13G23    29.94S
DYERSBURG      PTSUNNY   86  69  56 S15G24    29.86F HX  90
UNION CITY     PTSUNNY   86  70  58 S18G29    29.87F HX  90
HUNTINGDON     PTSUNNY   84  68  58 S16G30    29.91S


...EASTERN ARKANSAS...

CITY           SKY/WX    TMP DP  RH WIND       PRES   REMARKS
JONESBORO      MOSUNNY   85  69  58 S25G33    29.77F
WEST MEMPHIS   MOSUNNY   87  71  58 S24G35    29.81F HX  93
BATESVILLE     CLOUDY    82  70  65 SE15G29   29.75S
NEWPORT        PTSUNNY   86  72  62 S26G33    29.75F HX  92
WALNUT RIDGE   MOSUNNY   86  70  58 S22G30    29.77F HX  90
BLYTHEVILLE    MOSUNNY   87  71  58 S16G28    29.84F HX  93
SEARCY         PTSUNNY   86  74  67 S20G30    29.74F HX  94
STUTTGART      PTSUNNY  N/A N/A N/A S26G33    29.76F
PINE BLUFF     PTSUNNY   84  70  62 S20G35    29.75S
MONTICELLO     PTSUNNY   86  70  58 S14G28    29.77R HX  90


...NORTH MISSISSIPPI...

CITY           SKY/WX    TMP DP  RH WIND       PRES   REMARKS
TUPELO         PTSUNNY   85  68  56 SE18G35   29.92F
OXFORD         PTSUNNY   86  66  51 S16G24    29.89S
OLIVE BRANCH   PTSUNNY  N/A N/A N/A S15G31    29.84F
TUNICA         MOSUNNY   86  70  58 S20G32    29.81F HX  90
CLARKSDALE     MOSUNNY   90  70  51 S26G40    29.81S HX  95
CORINTH        PTSUNNY   86  68  54 S17G26    29.92F
GREENWOOD      SUNNY     89  71  55 S25G35    29.83F HX  95
STARKVILLE     MOSUNNY   86  68  54 S20G28    29.94F
GOLDEN TRIANGL PTSUNNY   84  66  54 S17G29    29.91F


...SOUTHEAST MISSOURI...

CITY           SKY/WX    TMP DP  RH WIND       PRES   REMARKS
KENNETT        MOSUNNY   86  70  58 S20G28    29.81F HAZE    HX  90
MALDEN         SUNNY     88  68  51 S22G29    29.82F HX  91
WEST PLAINS    CLOUDY    77  68  73 S15       29.76F
POPLAR BLUFF   CLOUDY    82  70  66 S14G24    29.81F
CAPE GIRARDEAU CLOUDY    82  69  64 S10       29.84F


...NORTHWEST ALABAMA...

CITY           SKY/WX    TMP DP  RH WIND       PRES   REMARKS
MUSCLE SHOALS  MOSUNNY   86  67  52 S21G28    29.98F


...MIDDLE TENNESSEE...

CITY           SKY/WX    TMP DP  RH WIND       PRES   REMARKS
NASHVILLE      PTSUNNY   91  64  40 S16G25    29.97F HX  92
CLARKSVILLE    CLOUDY    86  65  49 S14G22    29.93F
COLUMBIA       MOSUNNY   84  70  61 S13       29.96F


...WESTERN KENTUCKY...

CITY           SKY/WX    TMP DP  RH WIND       PRES   REMARKS
PADUCAH        CLOUDY    85  66  53 S17G23    29.87F
FORT CAMPBELL  MOSUNNY   86  66  51 S13G18    29.93R


...CENTRAL ARKANSAS...

CITY           SKY/WX    TMP DP  RH WIND       PRES   REMARKS
LITTLE ROCK    CLOUDY    84  73  69 SE18G25   29.72F HX  90


SKY/WX REPORTED AS FAIR MEANS FEW OR NO CLOUDS BELOW
12 THOUSAND FEET.




USA.gov is the U.S. government's official web portal to all federal, state and local government web resources and services.